W4WWT Weather Reports


time (UTC)temp
C
wind
direction
speed
KPH
gust
KPH
rain 1hr
cm
rain 24hr
cm
rain mn
cm
humidity
%
barometer
mb
20260505102002 6 24 0.0 0.0 0.00 0.00 0.00 97 1022.4
20260505100502 6 72 0.0 0.0 0.00 0.00 0.00 97 1022.4
20260505095002 6 43 0.0 0.0 0.00 0.00 0.00 97 1022.4
20260505093502 6 56 0.0 0.0 0.00 0.00 0.00 97 1022.4
20260505092001 6 40 0.0 0.0 0.00 0.00 0.00 96 1022.7
20260505090501 6 112 0.0 0.0 0.00 0.00 0.00 96 1022.4
20260505085003 7 247 0.0 0.0 0.00 0.00 0.00 96 1022.7
20260505084002 7 211 0.0 0.0 0.00 0.00 0.00 96 1022.7
20260505082502 7 314 0.0 0.0 0.00 0.00 0.00 95 1022.7
20260505081002 7 80 0.0 0.0 0.00 0.00 0.00 95 1022.7
20260505075503 7 79 0.0 0.0 0.00 0.00 0.00 95 1022.4
20260505072003 8 98 0.0 0.0 0.00 0.00 0.00 95 1022.7
20260505070502 8 98 0.0 0.0 0.00 0.00 0.00 95 1022.4
20260505065004 8 98 0.0 0.0 0.00 0.00 0.00 94 1022.4
20260505064002 8 95 0.0 0.0 0.00 0.00 0.00 93 1022.4
20260505062506 8 97 0.0 0.0 0.00 0.00 0.00 93 1022.4
20260505061004 8 81 0.0 0.0 0.00 0.00 0.00 93 1022.7
20260505060002 9 80 0.0 0.0 0.00 0.00 0.00 93 1022.7
20260505053001 10 75 0.0 0.0 0.00 0.00 0.00 92 1022.7
20260505051502 10 72 0.0 0.0 0.00 0.00 0.00 92 1022.7
20260505041502 11 241 0.0 0.0 0.00 0.00 0.00 88 1022.7
20260505040019 11 35 0.0 0.0 0.00 0.00 0.00 86 1022.7
20260505034503 12 74 0.0 0.0 0.00 0.00 0.00 85 1022.7
20260505030001 13 12 0.0 0.0 0.00 0.00 0.00 80 1022.7
20260505024502 13 88 0.0 0.0 0.00 0.00 0.00 78 1022.7
20260505023002 14 108 0.0 0.0 0.00 0.00 0.00 74 1022.7
20260505021503 15 93 0.0 0.0 0.00 0.00 0.00 71 1022.7
20260505014502 15 135 0.0 0.0 0.00 0.00 0.00 68 1022.4
20260505011502 16 115 0.0 0.0 0.00 0.00 0.00 68 1022.0
20260505010502 16 96 0.0 0.0 0.00 0.00 0.00 66 1022.0
20260505005002 17 91 0.0 0.0 0.00 0.00 0.00 62 1021.7
20260505004001 18 102 0.0 0.0 0.00 0.00 0.00 58 1021.7
20260505002502 20 97 0.0 0.0 0.00 0.00 0.00 53 1021.7
20260505001003 20 104 0.0 0.0 0.00 0.00 0.00 47 1021.3
20260504235503 21 180 0.0 1.6 0.00 0.00 0.00 45 1021.3
20260504234003 21 232 0.0 0.0 0.00 0.00 0.00 44 1021.7
20260504233002 21 284 0.0 0.0 0.00 0.00 0.00 44 1021.3
20260504231502 21 120 0.0 1.6 0.00 0.00 0.00 45 1021.3
20260504230501 22 97 0.0 0.0 0.00 0.00 0.00 45 1021.3
20260504223502 22 95 0.0 4.8 0.00 0.00 0.00 41 1021.3
20260504221001 22 103 0.0 1.6 0.00 0.00 0.00 40 1021.3
20260504214003 22 134 0.0 4.8 0.00 0.00 0.00 35 1021.3
20260504213001 23 153 0.0 6.4 0.00 0.00 0.00 33 1021.3
20260504211502 23 50 0.0 4.8 0.00 0.00 0.00 35 1021.3
20260504210003 23 229 0.0 4.8 0.00 0.00 0.00 35 1021.3
20260504205002 23 195 4.8 8.0 0.00 0.00 0.00 36 1021.3
20260504203503 24 305 0.0 6.4 0.00 0.00 0.00 37 1021.3
20260504202002 24 87 0.0 8.0 0.00 0.00 0.00 39 1021.7
20260504200505 25 36 1.6 1.6 0.00 0.00 0.00 37 1021.7
20260504195502 25 270 0.0 11.3 0.00 0.00 0.00 36 1021.7
20260504194501 26 113 3.2 4.8 0.00 0.00 0.00 36 1021.7
20260504193002 26 37 0.0 4.8 0.00 0.00 0.00 35 1022.0
20260504192001 26 199 1.6 6.4 0.00 0.00 0.00 33 1022.0
20260504190502 25 43 3.2 4.8 0.00 0.00 0.00 35 1022.4
20260504185002 27 161 3.2 8.0 0.00 0.00 0.00 34 1022.4
20260504183504 27 13 3.2 3.2 0.00 0.00 0.00 34 1022.7
20260504182002 26 288 0.0 1.6 0.00 0.00 0.00 36 1023.0
20260504180503 26 21 0.0 3.2 0.00 0.00 0.00 36 1023.0
20260504173503 25 85 3.2 4.8 0.00 0.00 0.00 36 1023.0
20260504170502 25 7 0.0 1.6 0.00 0.00 0.00 38 1023.4